Location: Pedimozza
(42.0500°N, 9.3500°E)
Time: 16:02:54
(UTC+00:00)

SPOT 5 - Pass Details

Date: 19 August 2019
Orbit: 623 x 815 km, 98.3° (Epoch: 23 September)

Event Time Altitude Azimuth Distance (km) Brightness Sun altitude
Exits shadow 21:41:24 33° 294° (WNW) 1,066 4.1 -30.2°
Drops below altitude 10° 21:44:23 10° 330° (NNW) 2,002 6.1 -30.5°
Sets 21:46:42 0° 339° (NNW) 2,917 7.2 -30.7°
